OH2HCY-3 Weather Reports


Display with metric or nautical units.
time (UTC)temp
F
wind
direction
speed
MPH
gust
MPH
rain 1hr
in
rain 24hr
in
rain mn
in
humidity
%
barometer
mb
20260508054507 48 158 2.0 6.0 0.00 0.00 0.00 44 10.2
20260508050723 44 110 2.0 7.0 0.00 0.00 0.00 49 1025.3
20260508050721 44 110 2.0 7.0 0.00 0.00 0.00 49 1025.3
20260508010736 35 171 3.0 5.0 0.00 0.00 0.00 63 1022.5
20260508004906 36 157 3.0 6.0 0.00 0.00 0.00 62 1022.3
20260508003231 36 175 2.0 6.0 0.00 0.00 0.00 61 1022.1
20260508001557 37 166 3.0 6.0 0.00 0.00 0.00 60 1021.8
20260507235731 37 157 3.0 7.0 0.00 0.00 0.00 58 1021.6
20260507233911 38 195 2.0 5.0 0.00 0.00 0.00 57 1021.4
20260507232256 38 182 2.0 6.0 0.00 0.00 0.00 54 1021.2
20260507230317 38 148 2.0 6.0 0.00 0.00 0.00 53 1021.0
20260507224701 39 191 2.0 6.0 0.00 0.00 0.00 52 1020.7
20260507221206 40 170 2.0 6.0 0.00 0.00 0.00 49 1020.4
20260507215351 41 184 3.0 7.0 0.00 0.00 0.00 47 1020.2
20260507215348 41 184 3.0 7.0 0.00 0.00 0.00 47 1020.2
20260507213651 41 194 2.0 6.0 0.00 0.00 0.00 47 1020.0
20260507211906 42 177 2.0 6.0 0.00 0.00 0.00 43 1019.8
20260507210256 43 108 2.0 7.0 0.00 0.00 0.00 41 1019.6
20260507202846 44 176 2.0 7.0 0.00 0.00 0.00 40 1019.1
20260507200942 45 136 2.0 6.0 0.00 0.00 0.00 38 1018.9
20260507193221 44 128 2.0 7.0 0.00 0.00 0.00 39 1018.3
20260507191226 42 133 2.0 9.0 0.00 0.00 0.00 48 1017.9
20260507191222 42 133 2.0 9.0 0.00 0.00 0.00 48 1017.9
20260507183557 43 103 4.0 6.0 0.00 0.00 0.00 51 1017.3
20260507181711 0 103 3.0 4.0 0.00 0.00 0.00 45 1017.0
20260507181708 44 103 3.0 6.0 0.00 0.00 0.00 45 1017.0
20260507172137 49 213 5.0 9.0 0.00 0.00 0.00 32 1016.9
20260507170206 50 207 4.0 8.0 0.00 0.00 0.00 30 1016.9
20260507164530 51 212 5.0 15.0 0.00 0.00 0.00 28 1016.9
20260507162749 52 224 4.0 9.0 0.00 0.00 0.00 26 1016.7
20260507162746 52 224 4.0 9.0 0.00 0.00 0.00 26 1016.7
20260507160806 53 208 4.0 12.0 0.00 0.00 0.00 23 1016.6
20260507155021 54 219 4.0 9.0 0.00 0.00 0.00 22 1016.5
20260507153041 54 216 4.0 8.0 0.00 0.00 0.00 22 1016.5
20260507151321 53 214 5.0 10.0 0.00 0.00 0.00 22 1016.4
20260507145526 53 215 5.0 10.0 0.00 0.00 0.00 22 1016.4
20260507143757 54 221 4.0 9.0 0.00 0.00 0.00 23 1016.4
20260507141931 53 213 5.0 8.0 0.00 0.00 0.00 22 1016.3
20260507140146 53 220 4.0 9.0 0.00 0.00 0.00 21 1016.2
20260507134253 53 231 4.0 9.0 0.00 0.00 0.00 24 1016.1
20260507132611 53 214 4.0 8.0 0.00 0.00 0.00 24 1016.1
20260507130656 54 213 3.0 8.0 0.00 0.00 0.00 23 1016.1
20260507124851 54 216 3.0 10.0 0.00 0.00 0.00 24 1016.1
20260507122957 53 198 3.0 7.0 0.00 0.00 0.00 26 1016.1
20260507121034 53 216 5.0 11.0 0.00 0.00 0.00 25 1016.1
20260507115336 52 210 4.0 8.0 0.00 0.00 0.00 28 1016.0
20260507113338 53 205 4.0 11.0 0.00 0.00 0.00 28 1016.0
20260507111644 53 200 3.0 8.0 0.00 0.00 0.00 29 1016.0
20260507105811 53 200 3.0 6.0 0.00 0.00 0.00 31 1015.9
20260507103856 51 212 6.0 11.0 0.00 0.00 0.00 31 1016.0
20260507102056 52 203 3.0 8.0 0.00 0.00 0.00 37 1015.9
20260507100242 53 204 3.0 7.0 0.00 0.00 0.00 38 1015.7
20260507094533 51 207 5.0 0.0 0.00 0.00 0.00 37 1015.6
20260507092617 53 171 3.0 6.0 0.00 0.00 0.00 31 1015.6